Year,Month,Day,Hour,Minute,Value (Times are PST for temperature in C)
2013,12,09,00,00,-5.30
2013,12,09,00,01,-5.30
2013,12,09,00,02,-5.30
2013,12,09,00,03,-5.30
2013,12,09,00,04,-5.30
2013,12,09,00,05,-5.30
2013,12,09,00,06,-5.30
2013,12,09,00,07,-5.30
2013,12,09,00,08,-5.20
2013,12,09,00,09,-5.20
2013,12,09,00,10,-5.20
2013,12,09,00,11,-5.20
2013,12,09,00,12,-5.20
2013,12,09,00,13,-5.20
2013,12,09,00,14,-5.20
2013,12,09,00,15,-5.20
2013,12,09,00,16,-5.20
2013,12,09,00,17,-5.20
2013,12,09,00,18,-5.20
2013,12,09,00,19,-5.20
2013,12,09,00,20,-5.20
2013,12,09,00,21,-5.20
2013,12,09,00,22,-5.20
2013,12,09,00,23,-5.20
2013,12,09,00,24,-5.20
2013,12,09,00,25,-5.20
2013,12,09,00,26,-5.20
2013,12,09,00,27,-5.20
2013,12,09,00,28,-5.20
2013,12,09,00,29,-5.20
2013,12,09,00,30,-5.20
2013,12,09,00,31,-5.20
2013,12,09,00,32,-5.20
2013,12,09,00,33,-5.20
2013,12,09,00,34,-5.20
2013,12,09,00,35,-5.20
2013,12,09,00,36,-5.20
2013,12,09,00,37,-5.20
2013,12,09,00,38,-5.20
2013,12,09,00,39,-5.20
2013,12,09,00,40,-5.30
2013,12,09,00,41,-5.30
2013,12,09,00,42,-5.30
2013,12,09,00,43,-5.30
2013,12,09,00,44,-5.30
2013,12,09,00,45,-5.30
2013,12,09,00,46,-5.30
2013,12,09,00,47,-5.40
2013,12,09,00,48,-5.40
2013,12,09,00,49,-5.40
2013,12,09,00,50,-5.40
2013,12,09,00,51,-5.40
2013,12,09,00,52,-5.40
2013,12,09,00,53,-5.40
2013,12,09,00,54,-5.40
2013,12,09,00,55,-5.40
2013,12,09,00,56,-5.40
2013,12,09,00,57,-5.40
2013,12,09,00,58,-5.40
2013,12,09,00,59,-5.40
2013,12,09,01,00,-5.40
2013,12,09,01,01,-5.40
2013,12,09,01,02,-5.40
2013,12,09,01,03,-5.30
2013,12,09,01,04,-5.30
2013,12,09,01,05,-5.30
2013,12,09,01,06,-5.30
2013,12,09,01,07,-5.30
2013,12,09,01,08,-5.30
2013,12,09,01,09,-5.30
2013,12,09,01,10,-5.30
2013,12,09,01,11,-5.30
2013,12,09,01,12,-5.30
2013,12,09,01,13,-5.30
2013,12,09,01,14,-5.30
2013,12,09,01,15,-5.20
2013,12,09,01,16,-5.20
2013,12,09,01,17,-5.20
2013,12,09,01,18,-5.20
2013,12,09,01,19,-5.10
2013,12,09,01,20,-5.10
2013,12,09,01,21,-5.00
2013,12,09,01,22,-5.00
2013,12,09,01,23,-4.90
2013,12,09,01,24,-4.90
2013,12,09,01,25,-4.90
2013,12,09,01,26,-4.80
2013,12,09,01,27,-4.80
2013,12,09,01,28,-4.80
2013,12,09,01,29,-4.80
2013,12,09,01,30,-4.80
2013,12,09,01,31,-4.80
2013,12,09,01,32,-4.70
2013,12,09,01,33,-4.70
2013,12,09,01,34,-4.70
2013,12,09,01,35,-4.70
2013,12,09,01,36,-4.70
2013,12,09,01,37,-4.70
2013,12,09,01,38,-4.70
2013,12,09,01,39,-4.70
2013,12,09,01,40,-4.60
2013,12,09,01,41,-4.60
2013,12,09,01,42,-4.60
2013,12,09,01,43,-4.50
2013,12,09,01,44,-4.50
2013,12,09,01,45,-4.40
2013,12,09,01,46,-4.40
2013,12,09,01,47,-4.40
2013,12,09,01,48,-4.40
2013,12,09,01,49,-4.40
2013,12,09,01,50,-4.30
2013,12,09,01,51,-4.30
2013,12,09,01,52,-4.30
2013,12,09,01,53,-4.30
2013,12,09,01,54,-4.30
2013,12,09,01,55,-4.30
2013,12,09,01,56,-4.30
2013,12,09,01,57,-4.30
2013,12,09,01,58,-4.30
2013,12,09,01,59,-4.30
2013,12,09,02,00,-4.30
2013,12,09,02,01,-4.30
2013,12,09,02,02,-4.30
2013,12,09,02,03,-4.30
2013,12,09,02,04,-4.30
2013,12,09,02,05,-4.30
2013,12,09,02,06,-4.30
2013,12,09,02,07,-4.30
2013,12,09,02,08,-4.30
2013,12,09,02,09,-4.40
2013,12,09,02,10,-4.40
2013,12,09,02,11,-4.40
2013,12,09,02,12,-4.40
2013,12,09,02,13,-4.40
2013,12,09,02,14,-4.40
2013,12,09,02,15,-4.40
2013,12,09,02,16,-4.40
2013,12,09,02,17,-4.40
2013,12,09,02,18,-4.40
2013,12,09,02,19,-4.40
2013,12,09,02,20,-4.40
2013,12,09,02,21,-4.40
2013,12,09,02,22,-4.40
2013,12,09,02,23,-4.40
2013,12,09,02,24,-4.40
2013,12,09,02,25,-4.40
2013,12,09,02,26,-4.40
2013,12,09,02,27,-4.40
2013,12,09,02,28,-4.40
2013,12,09,02,29,-4.40
2013,12,09,02,30,-4.40
2013,12,09,02,31,-4.50
2013,12,09,02,32,-4.50
2013,12,09,02,33,-4.50
2013,12,09,02,34,-4.50
2013,12,09,02,35,-4.50
2013,12,09,02,36,-4.50
2013,12,09,02,37,-4.40
2013,12,09,02,38,-4.40
2013,12,09,02,39,-4.50
2013,12,09,02,40,-4.40
2013,12,09,02,41,-4.40
2013,12,09,02,42,-4.40
2013,12,09,02,43,-4.40
2013,12,09,02,44,-4.40
2013,12,09,02,45,-4.40
2013,12,09,02,46,-4.40
2013,12,09,02,47,-4.40
2013,12,09,02,48,-4.40
2013,12,09,02,49,-4.40
2013,12,09,02,50,-4.40
2013,12,09,02,51,-4.40
2013,12,09,02,52,-4.40
2013,12,09,02,53,-4.40
2013,12,09,02,54,-4.40
2013,12,09,02,55,-4.30
2013,12,09,02,56,-4.30
2013,12,09,02,57,-4.30
2013,12,09,02,58,-4.30
2013,12,09,02,59,-4.30
2013,12,09,03,00,-4.30
2013,12,09,03,01,-4.30
2013,12,09,03,02,-4.30
2013,12,09,03,03,-4.30
2013,12,09,03,06,-4.30
2013,12,09,03,07,-4.30
2013,12,09,03,08,-4.30
2013,12,09,03,09,-4.30
2013,12,09,03,10,-4.30
2013,12,09,03,11,-4.20
2013,12,09,03,12,-4.20
2013,12,09,03,13,-4.20
2013,12,09,03,14,-4.20
2013,12,09,03,15,-4.20
2013,12,09,03,16,-4.20
2013,12,09,03,17,-4.10
2013,12,09,03,18,-4.10
2013,12,09,03,19,-4.10
2013,12,09,03,20,-4.10
2013,12,09,03,21,-4.10
2013,12,09,03,22,-4.10
2013,12,09,03,23,-4.10
2013,12,09,03,24,-4.10
2013,12,09,03,25,-4.10
2013,12,09,03,26,-4.10
2013,12,09,03,27,-4.10
2013,12,09,03,28,-4.10
2013,12,09,03,29,-4.10
2013,12,09,03,30,-4.10
2013,12,09,03,31,-4.10
2013,12,09,03,32,-4.10
2013,12,09,03,33,-4.10
2013,12,09,03,34,-4.10
2013,12,09,03,35,-4.10
2013,12,09,03,36,-4.10
2013,12,09,03,37,-4.10
2013,12,09,03,38,-4.10
2013,12,09,03,39,-4.10
2013,12,09,03,40,-4.10
2013,12,09,03,41,-4.10
2013,12,09,03,42,-4.10
2013,12,09,03,43,-4.10
2013,12,09,03,44,-4.10
2013,12,09,03,45,-4.10
2013,12,09,03,46,-4.10
2013,12,09,03,47,-4.10
2013,12,09,03,48,-4.10
2013,12,09,03,49,-4.10
2013,12,09,03,50,-4.10
2013,12,09,03,51,-4.10
2013,12,09,03,52,-4.10
2013,12,09,03,53,-4.10
2013,12,09,03,54,-4.10
2013,12,09,03,55,-4.10
2013,12,09,03,56,-4.00
2013,12,09,03,57,-4.00
2013,12,09,03,58,-4.00
2013,12,09,03,59,-4.00
2013,12,09,04,00,-4.00
2013,12,09,04,01,-4.00
2013,12,09,04,02,-4.00
2013,12,09,04,03,-4.00
2013,12,09,04,04,-4.00
2013,12,09,04,05,-4.00
2013,12,09,04,06,-4.00
2013,12,09,04,07,-4.00
2013,12,09,04,08,-4.00
2013,12,09,04,09,-4.00
2013,12,09,04,10,-4.00
2013,12,09,04,11,-4.00
2013,12,09,04,12,-4.00
2013,12,09,04,13,-4.00
2013,12,09,04,14,-4.00
2013,12,09,04,15,-4.00
2013,12,09,04,16,-4.00
2013,12,09,04,17,-4.00
2013,12,09,04,18,-3.90
2013,12,09,04,19,-3.90
2013,12,09,04,20,-3.90
2013,12,09,04,21,-3.90
2013,12,09,04,22,-3.90
2013,12,09,04,23,-3.90
2013,12,09,04,24,-3.90
2013,12,09,04,25,-3.90
2013,12,09,04,26,-3.90
2013,12,09,04,27,-3.90
2013,12,09,04,28,-3.90
2013,12,09,04,29,-3.90
2013,12,09,04,30,-3.90
2013,12,09,04,31,-3.90
2013,12,09,04,32,-3.90
2013,12,09,04,33,-3.90
2013,12,09,04,34,-3.90
2013,12,09,04,35,-3.90
2013,12,09,04,36,-3.90
2013,12,09,04,37,-3.90
2013,12,09,04,38,-3.90
2013,12,09,04,39,-3.90
2013,12,09,04,40,-3.90
2013,12,09,04,41,-3.90
2013,12,09,04,42,-3.90
2013,12,09,04,43,-3.90
2013,12,09,04,44,-3.90
2013,12,09,04,45,-3.90
2013,12,09,04,46,-3.90
2013,12,09,04,47,-3.90
2013,12,09,04,48,-3.90
2013,12,09,04,49,-3.90
2013,12,09,04,50,-3.90
2013,12,09,04,51,-3.90
2013,12,09,04,52,-3.90
2013,12,09,04,53,-3.90
2013,12,09,04,54,-3.90
2013,12,09,04,55,-3.80
2013,12,09,04,56,-3.80
2013,12,09,04,57,-3.80
2013,12,09,04,58,-3.80
2013,12,09,04,59,-3.80
2013,12,09,05,00,-3.80
2013,12,09,05,01,-3.80
2013,12,09,05,02,-3.80
2013,12,09,05,03,-3.80
2013,12,09,05,04,-3.80
2013,12,09,05,05,-3.80
2013,12,09,05,06,-3.80
2013,12,09,05,07,-3.80
2013,12,09,05,08,-3.80
2013,12,09,05,09,-3.70
2013,12,09,05,10,-3.70
2013,12,09,05,11,-3.70
2013,12,09,05,12,-3.70
2013,12,09,05,13,-3.70
2013,12,09,05,14,-3.70
2013,12,09,05,15,-3.70
2013,12,09,05,16,-3.70
2013,12,09,05,17,-3.70
2013,12,09,05,18,-3.70
2013,12,09,05,19,-3.70
2013,12,09,05,20,-3.70
2013,12,09,05,21,-3.70
2013,12,09,05,22,-3.70
2013,12,09,05,23,-3.70
2013,12,09,05,24,-3.70
2013,12,09,05,25,-3.70
2013,12,09,05,26,-3.70
2013,12,09,05,27,-3.70
2013,12,09,05,28,-3.70
2013,12,09,05,29,-3.70
2013,12,09,05,30,-3.70
2013,12,09,05,31,-3.70
2013,12,09,05,32,-3.70
2013,12,09,05,33,-3.70
2013,12,09,05,34,-3.70
2013,12,09,05,35,-3.70
2013,12,09,05,36,-3.70
2013,12,09,05,37,-3.60
2013,12,09,05,38,-3.60
2013,12,09,05,39,-3.60
2013,12,09,05,40,-3.60
2013,12,09,05,41,-3.60
2013,12,09,05,42,-3.50
2013,12,09,05,43,-3.50
2013,12,09,05,44,-3.50
2013,12,09,05,45,-3.50
2013,12,09,05,46,-3.50
2013,12,09,05,47,-3.40
2013,12,09,05,48,-3.40
2013,12,09,05,49,-3.40
2013,12,09,05,50,-3.40
2013,12,09,05,51,-3.40
2013,12,09,05,52,-3.40
2013,12,09,05,53,-3.40
2013,12,09,05,54,-3.40
2013,12,09,05,55,-3.40
2013,12,09,05,56,-3.40
2013,12,09,05,57,-3.30
2013,12,09,05,58,-3.30
2013,12,09,05,59,-3.40
2013,12,09,06,00,-3.40
2013,12,09,06,01,-3.40
2013,12,09,06,02,-3.40
2013,12,09,06,03,-3.40
2013,12,09,06,04,-3.40
2013,12,09,06,05,-3.40
2013,12,09,06,06,-3.40
2013,12,09,06,07,-3.40
2013,12,09,06,08,-3.40
2013,12,09,06,09,-3.40
2013,12,09,06,10,-3.40
2013,12,09,06,11,-3.40
2013,12,09,06,12,-3.40
2013,12,09,06,13,-3.40
2013,12,09,06,14,-3.40
2013,12,09,06,15,-3.40
2013,12,09,06,16,-3.40
2013,12,09,06,17,-3.40
2013,12,09,06,18,-3.40
2013,12,09,06,19,-3.40
2013,12,09,06,20,-3.40
2013,12,09,06,21,-3.40
2013,12,09,06,22,-3.40
2013,12,09,06,23,-3.40
2013,12,09,06,24,-3.40
2013,12,09,06,25,-3.40
2013,12,09,06,26,-3.40
2013,12,09,06,27,-3.40
2013,12,09,06,28,-3.40
2013,12,09,06,29,-3.40
2013,12,09,06,30,-3.40
2013,12,09,06,31,-3.40
2013,12,09,06,32,-3.40
2013,12,09,06,33,-3.40
2013,12,09,06,34,-3.30
2013,12,09,06,35,-3.30
2013,12,09,06,36,-3.30
2013,12,09,06,37,-3.30
2013,12,09,06,38,-3.30
2013,12,09,06,39,-3.30
2013,12,09,06,40,-3.30
2013,12,09,06,41,-3.20
2013,12,09,06,42,-3.20
2013,12,09,06,43,-3.20
2013,12,09,06,44,-3.20
2013,12,09,06,45,-3.20
2013,12,09,06,46,-3.20
2013,12,09,06,47,-3.10
2013,12,09,06,48,-3.10
2013,12,09,06,49,-3.10
2013,12,09,06,50,-3.10
2013,12,09,06,51,-3.10
2013,12,09,06,52,-3.00
2013,12,09,06,53,-3.00
2013,12,09,06,54,-3.00
2013,12,09,06,55,-2.90
2013,12,09,06,56,-2.90
2013,12,09,06,57,-2.90
2013,12,09,06,58,-2.90
2013,12,09,06,59,-2.90
2013,12,09,07,00,-2.90
2013,12,09,07,01,-2.90
2013,12,09,07,02,-2.80
2013,12,09,07,03,-2.80
2013,12,09,07,04,-2.80
2013,12,09,07,05,-2.80
2013,12,09,07,06,-2.80
2013,12,09,07,07,-2.80
2013,12,09,07,08,-2.80
2013,12,09,07,09,-2.80
2013,12,09,07,10,-2.80
2013,12,09,07,11,-2.80
2013,12,09,07,12,-2.80
2013,12,09,07,13,-2.80
2013,12,09,07,14,-2.80
2013,12,09,07,15,-2.80
2013,12,09,07,16,-2.80
2013,12,09,07,17,-2.80
2013,12,09,07,18,-2.80
2013,12,09,07,19,-2.80
2013,12,09,07,20,-2.80
2013,12,09,07,21,-2.80
2013,12,09,07,22,-2.90
2013,12,09,07,23,-2.90
2013,12,09,07,24,-2.90
2013,12,09,07,25,-2.90
2013,12,09,07,26,-2.90
2013,12,09,07,27,-2.90
2013,12,09,07,28,-2.90
2013,12,09,07,29,-2.90
2013,12,09,07,30,-2.90
2013,12,09,07,31,-3.00
2013,12,09,07,32,-3.00
2013,12,09,07,33,-3.00
2013,12,09,07,34,-3.00
2013,12,09,07,35,-3.00
2013,12,09,07,36,-3.00
2013,12,09,07,37,-3.00
2013,12,09,07,38,-3.00
2013,12,09,07,39,-3.00
2013,12,09,07,40,-3.00
2013,12,09,07,41,-3.00
2013,12,09,07,42,-3.00
2013,12,09,07,43,-3.00
2013,12,09,07,44,-3.00
2013,12,09,07,45,-3.00
2013,12,09,07,46,-3.00
2013,12,09,07,47,-3.00
2013,12,09,07,48,-3.00
2013,12,09,07,49,-3.00
2013,12,09,07,50,-3.00
2013,12,09,07,51,-3.00
2013,12,09,07,52,-3.10
2013,12,09,07,53,-3.00
2013,12,09,07,54,-3.10
2013,12,09,07,55,-3.00
2013,12,09,07,56,-3.00
2013,12,09,07,57,-3.00
2013,12,09,07,58,-3.00
2013,12,09,07,59,-3.00
2013,12,09,08,00,-3.00
2013,12,09,08,01,-3.00
2013,12,09,08,02,-3.00
2013,12,09,08,03,-3.00
2013,12,09,08,04,-3.00
2013,12,09,08,05,-3.00
2013,12,09,08,06,-3.00
2013,12,09,08,07,-3.00
2013,12,09,08,08,-3.00
2013,12,09,08,09,-3.00
2013,12,09,08,10,-3.00
2013,12,09,08,11,-3.00
2013,12,09,08,12,-3.00
2013,12,09,08,13,-3.00
2013,12,09,08,14,-3.00
2013,12,09,08,15,-3.00
2013,12,09,08,16,-3.00
2013,12,09,08,17,-3.00
2013,12,09,08,18,-3.00
2013,12,09,08,19,-3.00
2013,12,09,08,20,-3.00
2013,12,09,08,21,-3.00
2013,12,09,08,22,-3.00
2013,12,09,08,23,-3.00
2013,12,09,08,24,-3.00
2013,12,09,08,25,-3.00
2013,12,09,08,26,-3.00
2013,12,09,08,27,-3.00
2013,12,09,08,28,-2.90
2013,12,09,08,29,-2.90
2013,12,09,08,30,-2.90
2013,12,09,08,31,-2.90
2013,12,09,08,32,-2.90
2013,12,09,08,33,-2.90
2013,12,09,08,34,-2.90
2013,12,09,08,35,-2.90
2013,12,09,08,36,-2.90
2013,12,09,08,37,-2.90
2013,12,09,08,38,-2.90
2013,12,09,08,39,-2.90
2013,12,09,08,40,-2.90
2013,12,09,08,41,-2.90
2013,12,09,08,42,-2.90
2013,12,09,08,43,-2.90
2013,12,09,08,44,-2.80
2013,12,09,08,45,-2.80
2013,12,09,08,46,-2.80
2013,12,09,08,47,-2.80
2013,12,09,08,48,-2.80
2013,12,09,08,49,-2.80
2013,12,09,08,50,-2.80
2013,12,09,08,51,-2.80
2013,12,09,08,52,-2.80
2013,12,09,08,53,-2.80
2013,12,09,08,54,-2.80
2013,12,09,08,55,-2.80
2013,12,09,08,56,-2.80
2013,12,09,08,57,-2.80
2013,12,09,08,58,-2.80
2013,12,09,08,59,-2.80
2013,12,09,09,00,-2.80
2013,12,09,09,01,-2.80
2013,12,09,09,02,-2.70
2013,12,09,09,03,-2.70
2013,12,09,09,04,-2.70
2013,12,09,09,05,-2.70
2013,12,09,09,06,-2.70
2013,12,09,09,07,-2.70
2013,12,09,09,08,-2.70
2013,12,09,09,09,-2.70
2013,12,09,09,10,-2.70
2013,12,09,09,11,-2.70
2013,12,09,09,12,-2.70
2013,12,09,09,13,-2.60
2013,12,09,09,14,-2.60
2013,12,09,09,15,-2.60
2013,12,09,09,16,-2.60
2013,12,09,09,17,-2.60
2013,12,09,09,18,-2.60
2013,12,09,09,19,-2.60
2013,12,09,09,20,-2.60
2013,12,09,09,21,-2.60
2013,12,09,09,22,-2.50
2013,12,09,09,23,-2.50
2013,12,09,09,24,-2.50
2013,12,09,09,25,-2.50
2013,12,09,09,26,-2.50
2013,12,09,09,27,-2.40
2013,12,09,09,28,-2.40
2013,12,09,09,29,-2.40
2013,12,09,09,30,-2.40
2013,12,09,09,31,-2.40
2013,12,09,09,32,-2.40
2013,12,09,09,33,-2.40
2013,12,09,09,34,-2.40
2013,12,09,09,35,-2.30
2013,12,09,09,36,-2.30
2013,12,09,09,37,-2.30
2013,12,09,09,38,-2.30
2013,12,09,09,39,-2.30
2013,12,09,09,40,-2.30
2013,12,09,09,41,-2.30
2013,12,09,09,42,-2.30
2013,12,09,09,43,-2.30
2013,12,09,09,44,-2.30
2013,12,09,09,45,-2.20
2013,12,09,09,46,-2.20
2013,12,09,09,47,-2.20
2013,12,09,09,48,-2.20
2013,12,09,09,49,-2.20
2013,12,09,09,50,-2.20
2013,12,09,09,51,-2.20
2013,12,09,09,52,-2.20
2013,12,09,09,53,-2.20
2013,12,09,09,54,-2.20
2013,12,09,09,55,-2.10
2013,12,09,09,56,-2.10
2013,12,09,09,57,-2.10
2013,12,09,09,58,-2.20
2013,12,09,09,59,-2.20
2013,12,09,10,00,-2.10
2013,12,09,10,01,-2.10
2013,12,09,10,02,-2.10
2013,12,09,10,03,-2.10
2013,12,09,10,04,-2.10
2013,12,09,10,05,-2.10
2013,12,09,10,06,-2.10
2013,12,09,10,07,-2.10
2013,12,09,10,08,-2.10
2013,12,09,10,09,-2.10
2013,12,09,10,10,-2.10
2013,12,09,10,11,-2.10
2013,12,09,10,12,-2.10
2013,12,09,10,13,-2.10
2013,12,09,10,14,-2.00
2013,12,09,10,15,-2.00
2013,12,09,10,16,-2.00
2013,12,09,10,17,-2.00
2013,12,09,10,18,-2.00
2013,12,09,10,19,-2.00
2013,12,09,10,20,-1.90
2013,12,09,10,21,-1.90
2013,12,09,10,22,-1.90
2013,12,09,10,23,-1.90
2013,12,09,10,24,-1.90
2013,12,09,10,25,-1.90
2013,12,09,10,26,-1.90
2013,12,09,10,27,-1.90
2013,12,09,10,28,-1.90
2013,12,09,10,29,-1.90
2013,12,09,10,30,-1.90
2013,12,09,10,31,-1.90
2013,12,09,10,32,-1.90
2013,12,09,10,33,-1.90
2013,12,09,10,34,-1.90
2013,12,09,10,35,-1.90
2013,12,09,10,36,-1.90
2013,12,09,10,37,-1.80
2013,12,09,10,38,-1.90
2013,12,09,10,39,-1.90
2013,12,09,10,40,-1.90
2013,12,09,10,41,-1.90
2013,12,09,10,42,-1.90
2013,12,09,10,43,-1.90
2013,12,09,10,44,-1.90
2013,12,09,10,45,-1.90
2013,12,09,10,46,-1.90
2013,12,09,10,47,-1.90
2013,12,09,10,48,-1.90
2013,12,09,10,49,-1.90
2013,12,09,10,50,-1.90
2013,12,09,10,51,-1.90
2013,12,09,10,52,-1.90
2013,12,09,10,53,-1.90
2013,12,09,10,54,-1.90
2013,12,09,10,55,-1.90
2013,12,09,10,56,-1.90
2013,12,09,10,57,-1.90
2013,12,09,10,58,-1.80
2013,12,09,10,59,-1.80
2013,12,09,11,00,-1.80
2013,12,09,11,01,-1.80
2013,12,09,11,02,-1.80
2013,12,09,11,03,-1.80
2013,12,09,11,04,-1.80
2013,12,09,11,05,-1.80
2013,12,09,11,06,-1.80
2013,12,09,11,07,-1.80
2013,12,09,11,08,-1.80
2013,12,09,11,09,-1.80
2013,12,09,11,10,-1.80
2013,12,09,11,11,-1.80
2013,12,09,11,12,-1.80
2013,12,09,11,13,-1.80
2013,12,09,11,14,-1.70
2013,12,09,11,15,-1.70
2013,12,09,11,16,-1.70
2013,12,09,11,17,-1.70
2013,12,09,11,18,-1.70
2013,12,09,11,19,-1.70
2013,12,09,11,20,-1.70
2013,12,09,11,21,-1.70
2013,12,09,11,22,-1.70
2013,12,09,11,23,-1.70
2013,12,09,11,24,-1.60
2013,12,09,11,25,-1.60
2013,12,09,11,26,-1.60
2013,12,09,11,27,-1.60
2013,12,09,11,28,-1.60
2013,12,09,11,29,-1.60
2013,12,09,11,30,-1.60
2013,12,09,11,31,-1.60
2013,12,09,11,32,-1.60
2013,12,09,11,33,-1.60
2013,12,09,11,34,-1.50
2013,12,09,11,35,-1.50
2013,12,09,11,36,-1.50
2013,12,09,11,37,-1.50
2013,12,09,11,38,-1.50
2013,12,09,11,39,-1.50
2013,12,09,11,40,-1.50
2013,12,09,11,41,-1.50
2013,12,09,11,42,-1.50
2013,12,09,11,43,-1.40
2013,12,09,11,44,-1.40
2013,12,09,11,45,-1.40
2013,12,09,11,46,-1.40
2013,12,09,11,47,-1.40
2013,12,09,11,48,-1.40
2013,12,09,11,49,-1.40
2013,12,09,11,50,-1.40
2013,12,09,11,51,-1.40
2013,12,09,11,52,-1.40
2013,12,09,11,53,-1.40
2013,12,09,11,54,-1.40
2013,12,09,11,55,-1.40
2013,12,09,11,56,-1.40
2013,12,09,11,57,-1.40
2013,12,09,11,58,-1.40
2013,12,09,11,59,-1.40
2013,12,09,12,00,-1.30
2013,12,09,12,01,-1.30
2013,12,09,12,02,-1.30
2013,12,09,12,03,-1.30
2013,12,09,12,04,-1.30
2013,12,09,12,05,-1.30
2013,12,09,12,06,-1.30
2013,12,09,12,07,-1.30
2013,12,09,12,08,-1.20
2013,12,09,12,09,-1.20
2013,12,09,12,10,-1.20
2013,12,09,12,11,-1.20
2013,12,09,12,12,-1.20
2013,12,09,12,13,-1.10
2013,12,09,12,14,-1.10
2013,12,09,12,15,-1.10
2013,12,09,12,16,-1.10
2013,12,09,12,17,-1.10
2013,12,09,12,18,-1.10
2013,12,09,12,19,-1.10
2013,12,09,12,20,-1.00
2013,12,09,12,21,-1.00
2013,12,09,12,22,-1.00
2013,12,09,12,23,-1.00
2013,12,09,12,24,-0.90
2013,12,09,12,25,-0.90
2013,12,09,12,26,-0.90
2013,12,09,12,27,-0.90
2013,12,09,12,28,-0.90
2013,12,09,12,29,-0.90
2013,12,09,12,30,-0.90
2013,12,09,12,31,-0.90
2013,12,09,12,32,-0.90
2013,12,09,12,33,-0.90
2013,12,09,12,34,-0.90
2013,12,09,12,35,-0.90
2013,12,09,12,36,-0.90
2013,12,09,12,37,-0.90
2013,12,09,12,38,-0.90
2013,12,09,12,39,-0.90
2013,12,09,12,40,-0.90
2013,12,09,12,41,-0.90
2013,12,09,12,42,-0.90
2013,12,09,12,43,-1.00
2013,12,09,12,44,-1.00
2013,12,09,12,45,-1.00
2013,12,09,12,46,-1.00
2013,12,09,12,47,-1.00
2013,12,09,12,48,-1.00
2013,12,09,12,49,-1.00
2013,12,09,12,50,-1.00
2013,12,09,12,51,-1.00
2013,12,09,12,52,-1.00
2013,12,09,12,53,-1.00
2013,12,09,12,54,-1.00
2013,12,09,12,55,-1.00
2013,12,09,12,56,-1.00
2013,12,09,12,57,-1.00
2013,12,09,12,58,-0.90
2013,12,09,12,59,-0.90
2013,12,09,13,00,-0.90
2013,12,09,13,01,-0.90
2013,12,09,13,02,-0.90
2013,12,09,13,03,-0.80
2013,12,09,13,04,-0.80
2013,12,09,13,05,-0.80
2013,12,09,13,06,-0.80
2013,12,09,13,07,-0.80
2013,12,09,13,08,-0.80
2013,12,09,13,09,-0.80
2013,12,09,13,10,-0.80
2013,12,09,13,11,-0.80
2013,12,09,13,12,-0.80
2013,12,09,13,13,-0.80
2013,12,09,13,14,-0.80
2013,12,09,13,15,-0.80
2013,12,09,13,16,-0.80
2013,12,09,13,17,-0.80
2013,12,09,13,18,-0.80
2013,12,09,13,19,-0.80
2013,12,09,13,20,-0.80
2013,12,09,13,21,-0.80
2013,12,09,13,22,-0.80
2013,12,09,13,23,-0.80
2013,12,09,13,24,-0.80
2013,12,09,13,25,-0.70
2013,12,09,13,26,-0.70
2013,12,09,13,27,-0.70
2013,12,09,13,28,-0.70
2013,12,09,13,29,-0.70
2013,12,09,13,30,-0.70
2013,12,09,13,31,-0.70
2013,12,09,13,32,-0.70
2013,12,09,13,33,-0.70
2013,12,09,13,34,-0.70
2013,12,09,13,35,-0.70
2013,12,09,13,36,-0.70
2013,12,09,13,37,-0.70
2013,12,09,13,38,-0.70
2013,12,09,13,39,-0.70
2013,12,09,13,40,-0.70
2013,12,09,13,41,-0.60
2013,12,09,13,42,-0.60
2013,12,09,13,43,-0.60
2013,12,09,13,44,-0.60
2013,12,09,13,45,-0.60
2013,12,09,13,46,-0.60
2013,12,09,13,47,-0.60
2013,12,09,13,48,-0.60
2013,12,09,13,49,-0.60
2013,12,09,13,50,-0.60
2013,12,09,13,51,-0.60
2013,12,09,13,52,-0.60
2013,12,09,13,53,-0.60
2013,12,09,13,54,-0.60
2013,12,09,13,55,-0.60
2013,12,09,13,56,-0.60
2013,12,09,13,57,-0.60
2013,12,09,13,58,-0.60
2013,12,09,13,59,-0.60
2013,12,09,14,00,-0.60
2013,12,09,14,01,-0.60
2013,12,09,14,02,-0.60
2013,12,09,14,03,-0.60
2013,12,09,14,04,-0.60
2013,12,09,14,05,-0.60
2013,12,09,14,06,-0.60
2013,12,09,14,07,-0.60
2013,12,09,14,08,-0.60
2013,12,09,14,09,-0.60
2013,12,09,14,10,-0.60
2013,12,09,14,11,-0.60
2013,12,09,14,12,-0.60
2013,12,09,14,13,-0.60
2013,12,09,14,14,-0.60
2013,12,09,14,15,-0.60
2013,12,09,14,16,-0.60
2013,12,09,14,17,-0.60
2013,12,09,14,18,-0.60
2013,12,09,14,19,-0.60
2013,12,09,14,20,-0.60
2013,12,09,14,21,-0.60
2013,12,09,14,22,-0.60
2013,12,09,14,23,-0.70
2013,12,09,14,24,-0.70
2013,12,09,14,25,-0.70
2013,12,09,14,26,-0.70
2013,12,09,14,27,-0.70
2013,12,09,14,28,-0.70
2013,12,09,14,29,-0.70
2013,12,09,14,30,-0.60
2013,12,09,14,31,-0.60
2013,12,09,14,32,-0.60
2013,12,09,14,33,-0.60
2013,12,09,14,34,-0.60
2013,12,09,14,35,-0.60
2013,12,09,14,36,-0.60
2013,12,09,14,37,-0.60
2013,12,09,14,38,-0.60
2013,12,09,14,39,-0.60
2013,12,09,14,40,-0.60
2013,12,09,14,41,-0.60
2013,12,09,14,42,-0.60
2013,12,09,14,43,-0.60
2013,12,09,14,44,-0.60
2013,12,09,14,45,-0.60
2013,12,09,14,46,-0.60
2013,12,09,14,47,-0.60
2013,12,09,14,48,-0.60
2013,12,09,14,49,-0.60
2013,12,09,14,50,-0.60
2013,12,09,14,51,-0.60
2013,12,09,14,52,-0.60
2013,12,09,14,53,-0.60
2013,12,09,14,54,-0.60
2013,12,09,14,55,-0.60
2013,12,09,14,56,-0.60
2013,12,09,14,57,-0.60
2013,12,09,14,58,-0.60
2013,12,09,14,59,-0.60
2013,12,09,15,00,-0.60
2013,12,09,15,01,-0.60
2013,12,09,15,02,-0.50
2013,12,09,15,03,-0.50
2013,12,09,15,04,-0.50
2013,12,09,15,05,-0.50
2013,12,09,15,06,-0.50
2013,12,09,15,07,-0.50
2013,12,09,15,08,-0.50
2013,12,09,15,09,-0.50
2013,12,09,15,10,-0.50
2013,12,09,15,11,-0.50
2013,12,09,15,12,-0.50
2013,12,09,15,13,-0.50
2013,12,09,15,14,-0.50
2013,12,09,15,15,-0.50
2013,12,09,15,16,-0.50
2013,12,09,15,17,-0.50
2013,12,09,15,18,-0.50
2013,12,09,15,19,-0.50
2013,12,09,15,20,-0.50
2013,12,09,15,21,-0.50
2013,12,09,15,22,-0.60
2013,12,09,15,23,-0.60
2013,12,09,15,24,-0.60
2013,12,09,15,25,-0.60
2013,12,09,15,26,-0.50
2013,12,09,15,27,-0.60
2013,12,09,15,28,-0.60
2013,12,09,15,29,-0.50
2013,12,09,15,30,-0.50
2013,12,09,15,31,-0.50
2013,12,09,15,32,-0.50
2013,12,09,15,33,-0.50
2013,12,09,15,34,-0.50
2013,12,09,15,35,-0.50
2013,12,09,15,36,-0.50
2013,12,09,15,37,-0.60
2013,12,09,15,38,-0.50
2013,12,09,15,39,-0.60
2013,12,09,15,40,-0.50
2013,12,09,15,41,-0.50
2013,12,09,15,42,-0.50
2013,12,09,15,43,-0.50
2013,12,09,15,44,-0.50
2013,12,09,15,45,-0.50
2013,12,09,15,46,-0.50
2013,12,09,15,47,-0.60
2013,12,09,15,48,-0.50
2013,12,09,15,49,-0.50
2013,12,09,15,50,-0.50
2013,12,09,15,51,-0.50
2013,12,09,15,52,-0.50
2013,12,09,15,53,-0.50
2013,12,09,15,54,-0.50
2013,12,09,15,55,-0.50
2013,12,09,15,56,-0.50
2013,12,09,15,57,-0.50
2013,12,09,15,58,-0.50
2013,12,09,15,59,-0.50
2013,12,09,16,00,-0.50
2013,12,09,16,01,-0.50
2013,12,09,16,02,-0.50
2013,12,09,16,03,-0.50
2013,12,09,16,04,-0.50
2013,12,09,16,05,-0.50
2013,12,09,16,06,-0.50
2013,12,09,16,07,-0.50
2013,12,09,16,08,-0.50
2013,12,09,16,09,-0.50
2013,12,09,16,10,-0.50
2013,12,09,16,11,-0.50
2013,12,09,16,12,-0.50
2013,12,09,16,13,-0.50
2013,12,09,16,14,-0.50
2013,12,09,16,15,-0.50
2013,12,09,16,16,-0.50
2013,12,09,16,17,-0.50
2013,12,09,16,18,-0.50
2013,12,09,16,19,-0.50
2013,12,09,16,20,-0.50
2013,12,09,16,21,-0.50
2013,12,09,16,22,-0.50
2013,12,09,16,23,-0.60
2013,12,09,16,24,-0.60
2013,12,09,16,25,-0.60
2013,12,09,16,26,-0.60
2013,12,09,16,27,-0.60
2013,12,09,16,28,-0.60
2013,12,09,16,29,-0.60
2013,12,09,16,30,-0.60
2013,12,09,16,31,-0.60
2013,12,09,16,32,-0.60
2013,12,09,16,33,-0.60
2013,12,09,16,34,-0.60
2013,12,09,16,35,-0.60
2013,12,09,16,36,-0.60
2013,12,09,16,37,-0.60
2013,12,09,16,38,-0.60
2013,12,09,16,39,-0.60
2013,12,09,16,40,-0.60
2013,12,09,16,41,-0.60
2013,12,09,16,42,-0.60
2013,12,09,16,43,-0.60
2013,12,09,16,44,-0.60
2013,12,09,16,45,-0.70
2013,12,09,16,46,-0.70
2013,12,09,16,47,-0.70
2013,12,09,16,48,-0.70
2013,12,09,16,49,-0.70
2013,12,09,16,50,-0.70
2013,12,09,16,51,-0.70
2013,12,09,16,52,-0.70
2013,12,09,16,53,-0.70
2013,12,09,16,54,-0.70
2013,12,09,16,55,-0.70
2013,12,09,16,56,-0.70
2013,12,09,16,57,-0.70
2013,12,09,16,58,-0.70
2013,12,09,16,59,-0.70
2013,12,09,17,00,-0.70
2013,12,09,17,01,-0.70
2013,12,09,17,02,-0.70
2013,12,09,17,03,-0.80
2013,12,09,17,04,-0.80
2013,12,09,17,05,-0.80
2013,12,09,17,06,-0.80
2013,12,09,17,07,-0.80
2013,12,09,17,08,-0.80
2013,12,09,17,09,-0.80
2013,12,09,17,10,-0.80
2013,12,09,17,11,-0.80
2013,12,09,17,12,-0.80
2013,12,09,17,13,-0.80
2013,12,09,17,14,-0.80
2013,12,09,17,15,-0.80
2013,12,09,17,16,-0.80
2013,12,09,17,17,-0.80
2013,12,09,17,18,-0.80
2013,12,09,17,19,-0.80
2013,12,09,17,20,-0.80
2013,12,09,17,21,-0.80